Date String (YYYY-MM-DD hh:mm:ss) UTC,Instrument flags,absolute air pressure of the measurement (hPa),sample flow rate (lpm),inlet stack bypass flow (lpm),air temperature of the measurement (°C),ambient temperature measured by the external sensor (°C),aerosol sample conditioner tube jacket temperature (°C),OPC LED temperature (°C),internal box temperature (°C),relative humidity of the measurement (%),span deviation,mass concentration of particles derived from Lorenz-Mie calculation of OPC scattering (μg/m³),mass concentration of particles derived from Lorenz-Mie calculation of OPC scattering (μg/m³),mass concentration of particles derived from Lorenz-Mie calculation of OPC scattering (μg/m³)
DateTimeUTC,F1_M11,P_M11,Q1_M11,Q2_M11,T1_M11,T2_M11,T3_M11,T4_M11,T5_M11,U1_M11,ZSPAN_M11,X2_M11,X0_M11,X1_M11
2024-05-27 23:00:00,SystemResetWarning,0831.3,5.00,000.00,029.8,028.7,000.0,038.1,031.5,013.7,0000.0,0004.08,0013.51,0003.13
2024-05-27 23:01:00,SystemResetWarning,0831.3,5.00,000.00,029.9,028.9,000.0,038.1,031.6,013.8,0000.0,0004.09,0013.24,0003.14
2024-05-27 23:02:00,SystemResetWarning,0831.3,4.99,000.00,029.9,029.1,000.0,038.2,031.7,013.8,0000.0,0004.12,0012.65,0003.14
2024-05-27 23:03:00,SystemResetWarning,0831.4,5.00,000.00,030.0,029.3,000.0,038.2,031.8,013.4,0000.0,0004.09,0012.22,0003.15
2024-05-27 23:04:00,SystemResetWarning,0831.3,5.01,000.00,030.0,029.4,000.0,038.2,031.8,013.8,0000.0,0004.06,0011.71,0003.16
2024-05-27 23:05:00,SystemResetWarning,0831.3,5.00,000.00,030.1,029.5,000.0,038.2,031.9,014.3,0000.0,0004.06,0011.60,0003.16
2024-05-27 23:06:00,SystemResetWarning,0831.3,5.00,000.00,030.2,029.6,000.0,038.3,032.0,013.8,0000.0,0004.03,0011.90,0003.16
2024-05-27 23:07:00,SystemResetWarning,0831.4,5.00,000.00,030.2,029.7,000.0,038.3,032.0,014.3,0000.0,0004.04,0011.57,0003.17
2024-05-27 23:08:00,SystemResetWarning,0831.4,5.00,000.00,030.3,029.8,000.0,038.4,032.1,014.3,0000.0,0004.04,0011.94,0003.18
2024-05-27 23:09:00,SystemResetWarning,0831.5,4.99,000.00,030.3,029.8,000.0,038.4,032.1,013.6,0000.0,0004.08,0012.81,0003.18
2024-05-27 23:10:00,SystemResetWarning,0831.4,4.99,000.00,030.2,027.9,000.0,038.5,031.1,013.6,0000.0,0004.07,0014.56,0003.18
2024-05-27 23:11:00,SystemResetWarning,0831.3,5.02,000.00,029.8,026.7,000.0,038.5,030.6,014.2,0000.0,0003.97,0013.90,0003.18
2024-05-27 23:12:00,SystemResetWarning,0831.3,5.00,000.00,029.7,027.1,000.0,038.4,030.6,014.6,0000.0,0003.98,0013.85,0003.18
2024-05-27 23:13:00,SystemResetWarning,0831.4,5.00,000.00,029.6,027.5,000.0,038.3,030.8,014.5,0000.0,0004.01,0013.88,0003.19
2024-05-27 23:14:00,SystemResetWarning,0831.4,5.01,000.00,029.7,027.8,000.0,038.2,031.1,014.1,0000.0,0004.05,0013.95,0003.20
2024-05-27 23:15:00,SystemResetWarning,0831.4,5.00,000.00,029.7,028.2,000.0,038.2,031.3,013.8,0000.0,0004.05,0014.44,0003.21
2024-05-27 23:16:00,SystemResetWarning,0831.4,5.00,000.00,029.8,028.5,000.0,038.2,031.4,014.9,0000.0,0004.08,0015.42,0003.22
2024-05-27 23:17:00,SystemResetWarning,0831.4,5.00,000.00,029.8,028.7,000.0,038.2,031.5,014.8,0000.0,0004.10,0015.12,0003.21
2024-05-27 23:18:00,SystemResetWarning,0831.4,5.00,000.00,029.9,028.9,000.0,038.2,031.6,014.4,0000.0,0004.07,0014.91,0003.21
2024-05-27 23:19:00,SystemResetWarning,0831.4,5.00,000.00,029.9,029.1,000.0,038.2,031.7,014.0,0000.0,0004.04,0014.73,0003.21
2024-05-27 23:20:00,SystemResetWarning,0831.4,5.00,000.00,030.0,029.3,000.0,038.2,031.8,013.6,0000.0,0004.03,0014.24,0003.22
2024-05-27 23:21:00,SystemResetWarning,0831.4,4.99,000.00,030.1,029.4,000.0,038.2,031.8,013.4,0000.0,0004.02,0012.17,0003.22
2024-05-27 23:22:00,SystemResetWarning,0831.4,4.99,000.00,030.1,029.5,000.0,038.3,031.9,013.8,0000.0,0004.08,0011.77,0003.23
2024-05-27 23:23:00,SystemResetWarning,0831.4,5.01,000.00,030.2,029.6,000.0,038.3,032.0,013.2,0000.0,0004.08,0012.07,0003.24
2024-05-27 23:24:00,SystemResetWarning,0831.4,5.01,000.00,030.2,029.7,000.0,038.3,032.0,013.4,0000.0,0004.04,0012.08,0003.23
2024-05-27 23:25:00,SystemResetWarning,0831.4,5.01,000.00,030.3,029.8,000.0,038.4,032.1,013.5,0000.0,0004.01,0012.27,0003.22
2024-05-27 23:26:00,SystemResetWarning,0831.5,4.99,000.00,030.4,029.8,000.0,038.4,032.1,014.0,0000.0,0004.01,0011.81,0003.21
2024-05-27 23:27:00,SystemResetWarning,0831.4,4.98,000.00,030.2,028.1,000.0,038.5,031.2,013.9,0000.0,0004.02,0011.14,0003.20
2024-05-27 23:28:00,SystemResetWarning,0831.3,5.02,000.00,029.8,026.7,000.0,038.5,030.6,014.7,0000.0,0004.09,0011.13,0003.22
2024-05-27 23:29:00,SystemResetWarning,0831.4,4.99,000.00,029.7,027.0,000.0,038.4,030.6,015.0,0000.0,0004.18,0012.27,0003.23
2024-05-27 23:30:00,SystemResetWarning,0831.4,4.99,000.00,029.6,027.4,000.0,038.3,030.8,015.2,0000.0,0004.23,0013.48,0003.24
2024-05-27 23:31:00,SystemResetWarning,0831.3,5.01,000.00,029.7,027.8,000.0,038.2,031.0,015.0,0000.0,0004.24,0013.98,0003.24
2024-05-27 23:32:00,SystemResetWarning,0831.4,5.00,000.00,029.7,028.1,000.0,038.2,031.2,015.0,0000.0,0004.25,0014.35,0003.24
2024-05-27 23:33:00,SystemResetWarning,0831.4,5.00,000.00,029.7,028.4,000.0,038.2,031.4,013.5,0000.0,0004.25,0015.58,0003.25
2024-05-27 23:34:00,SystemResetWarning,0831.4,4.99,000.00,029.8,028.7,000.0,038.2,031.5,013.7,0000.0,0004.18,0014.76,0003.25
2024-05-27 23:35:00,SystemResetWarning,0831.4,5.00,000.00,029.9,028.9,000.0,038.2,031.6,013.8,0000.0,0004.20,0014.84,0003.25
2024-05-27 23:36:00,SystemResetWarning,0831.5,5.00,000.00,029.9,029.1,000.0,038.2,031.7,014.3,0000.0,0004.26,0014.88,0003.26
2024-05-27 23:37:00,SystemResetWarning,0831.4,5.01,000.00,030.0,029.3,000.0,038.2,031.7,014.6,0000.0,0004.25,0015.10,0003.27
2024-05-27 23:38:00,SystemResetWarning,0831.5,5.00,000.00,030.0,029.4,000.0,038.2,031.8,013.6,0000.0,0004.26,0015.39,0003.28
2024-05-27 23:39:00,SystemResetWarning,0831.5,5.00,000.00,030.1,029.5,000.0,038.3,031.9,014.2,0000.0,0004.19,0015.40,0003.29
2024-05-27 23:40:00,SystemResetWarning,0831.5,5.00,000.00,030.2,029.6,000.0,038.3,032.0,014.5,0000.0,0004.11,0016.01,0003.28
2024-05-27 23:41:00,SystemResetWarning,0831.5,5.00,000.00,030.2,029.7,000.0,038.3,032.0,014.4,0000.0,0004.04,0014.86,0003.28
2024-05-27 23:42:00,SystemResetWarning,0831.5,5.00,000.00,030.3,029.8,000.0,038.4,032.0,014.0,0000.0,0004.02,0013.94,0003.27
2024-05-27 23:43:00,SystemResetWarning,0831.4,4.98,000.00,030.1,028.0,000.0,038.4,031.2,014.6,0000.0,0004.07,0014.12,0003.27
2024-05-27 23:44:00,SystemResetWarning,0831.4,5.02,000.00,029.7,026.6,000.0,038.5,030.5,015.4,0000.0,0004.03,0012.44,0003.28
2024-05-27 23:45:00,SystemResetWarning,0831.4,5.01,000.00,029.6,026.9,000.0,038.4,030.5,015.4,0000.0,0004.07,0012.62,0003.28
2024-05-27 23:46:00,SystemResetWarning,0831.4,5.00,000.00,029.5,027.3,000.0,038.3,030.7,015.1,0000.0,0004.05,0012.65,0003.28
2024-05-27 23:47:00,SystemResetWarning,0831.4,5.00,000.00,029.6,027.7,000.0,038.2,031.0,014.8,0000.0,0004.00,0013.10,0003.28
2024-05-27 23:48:00,SystemResetWarning,0831.4,5.01,000.00,029.6,028.1,000.0,038.1,031.2,015.0,0000.0,0003.98,0013.47,0003.27
2024-05-27 23:49:00,SystemResetWarning,0831.4,5.00,000.00,029.7,028.4,000.0,038.1,031.3,014.8,0000.0,0003.97,0013.64,0003.27
2024-05-27 23:50:00,SystemResetWarning,0831.4,5.00,000.00,029.8,028.6,000.0,038.1,031.4,014.7,0000.0,0003.95,0012.94,0003.25
2024-05-27 23:51:00,SystemResetWarning,0831.5,5.00,000.00,029.8,028.9,000.0,038.1,031.5,014.7,0000.0,0003.96,0012.04,0003.25
2024-05-27 23:52:00,SystemResetWarning,0831.5,5.00,000.00,029.9,029.1,000.0,038.1,031.6,014.5,0000.0,0003.99,0012.49,0003.24
2024-05-27 23:53:00,SystemResetWarning,0831.5,5.00,000.00,029.9,029.2,000.0,038.2,031.7,015.1,0000.0,0004.00,0012.69,0003.23
2024-05-27 23:54:00,SystemResetWarning,0831.5,5.00,000.00,030.0,029.4,000.0,038.2,031.8,014.6,0000.0,0003.92,0011.54,0003.23
2024-05-27 23:55:00,SystemResetWarning,0831.5,5.00,000.00,030.1,029.5,000.0,038.2,031.9,013.9,0000.0,0003.91,0011.98,0003.22
2024-05-27 23:56:00,SystemResetWarning,0831.5,5.00,000.00,030.1,029.6,000.0,038.2,032.0,014.0,0000.0,0003.90,0011.95,0003.22
2024-05-27 23:57:00,SystemResetWarning,0831.6,4.99,000.00,030.2,029.7,000.0,038.3,032.0,013.6,0000.0,0003.91,0011.92,0003.20
2024-05-27 23:58:00,SystemResetWarning,0831.6,4.99,000.00,030.3,029.8,000.0,038.3,032.1,014.0,0000.0,0003.90,0011.38,0003.19
2024-05-27 23:59:00,SystemResetWarning,0831.6,4.99,000.00,030.3,029.8,000.0,038.4,032.1,014.0,0000.0,0003.92,0011.18,0003.20
